TimeCST,TemperatureF,Dew PointF,Humidity,Sea Level PressureIn,VisibilityMPH,Wind Direction,Wind SpeedMPH,Gust SpeedMPH,PrecipitationIn,Events,Conditions,WindDirDegrees,DateUTC
12:15 AM,22.6,21.0,93,30.44,10.0,WNW,5.8,-,N/A,,Clear,300,2013-11-27 06:15:00
12:35 AM,23.0,21.0,92,30.44,10.0,NW,4.6,-,N/A,,Clear,320,2013-11-27 06:35:00
12:55 AM,23.0,20.8,91,30.43,10.0,NW,5.8,-,N/A,,Clear,320,2013-11-27 06:55:00
1:15 AM,23.7,20.7,88,30.43,10.0,NNW,4.6,-,N/A,,Clear,330,2013-11-27 07:15:00
1:35 AM,23.2,20.3,89,30.43,10.0,NNW,3.5,-,N/A,,Clear,330,2013-11-27 07:35:00
1:55 AM,21.9,19.8,91,30.43,10.0,Calm,Calm,-,N/A,,Clear,0,2013-11-27 07:55:00
2:15 AM,21.7,19.9,93,30.44,10.0,Calm,Calm,-,N/A,,Clear,0,2013-11-27 08:15:00
2:35 AM,20.8,19.0,93,30.44,10.0,North,4.6,-,N/A,,Clear,360,2013-11-27 08:35:00
2:55 AM,21.7,17.8,85,30.44,10.0,NNE,8.1,-,N/A,,Clear,20,2013-11-27 08:55:00
3:15 AM,22.6,18.0,82,30.44,10.0,NNE,8.1,-,N/A,,Clear,20,2013-11-27 09:15:00
3:35 AM,22.5,17.6,82,30.44,10.0,NNE,6.9,-,N/A,,Clear,20,2013-11-27 09:35:00
3:55 AM,21.2,17.1,84,30.44,10.0,North,8.1,-,N/A,,Clear,10,2013-11-27 09:55:00
4:15 AM,18.9,16.0,89,30.44,10.0,Calm,Calm,-,N/A,,Clear,0,2013-11-27 10:15:00
4:35 AM,20.7,16.9,85,30.44,10.0,Calm,Calm,-,N/A,,Clear,0,2013-11-27 10:35:00
4:55 AM,17.4,15.6,93,30.44,10.0,North,3.5,-,N/A,,Clear,360,2013-11-27 10:55:00
5:15 AM,18.0,16.0,92,30.45,10.0,Calm,Calm,-,N/A,,Clear,0,2013-11-27 11:15:00
5:35 AM,17.2,14.9,91,30.45,10.0,WNW,3.5,-,N/A,,Clear,300,2013-11-27 11:35:00
5:55 AM,17.1,15.6,94,30.45,10.0,Calm,Calm,-,N/A,,Clear,0,2013-11-27 11:55:00
6:15 AM,16.7,15.3,94,30.45,10.0,Calm,Calm,-,N/A,,Clear,0,2013-11-27 12:15:00
6:35 AM,15.8,14.5,95,30.45,10.0,West,3.5,-,N/A,,Clear,280,2013-11-27 12:35:00
6:55 AM,15.6,14.5,95,30.45,10.0,WNW,5.8,-,N/A,,Clear,300,2013-11-27 12:55:00
7:15 AM,15.3,14.5,97,30.45,10.0,Calm,Calm,-,N/A,,Clear,0,2013-11-27 13:15:00
7:35 AM,16.7,15.6,96,30.45,10.0,Calm,Calm,-,N/A,,Clear,0,2013-11-27 13:35:00
7:55 AM,17.6,15.4,91,30.45,10.0,Calm,Calm,-,N/A,,Clear,0,2013-11-27 13:55:00
8:15 AM,19.2,16.7,90,30.45,10.0,Calm,Calm,-,N/A,,Clear,0,2013-11-27 14:15:00
8:35 AM,21.7,18.1,86,30.45,10.0,Calm,Calm,-,N/A,,Clear,0,2013-11-27 14:35:00
8:55 AM,23.5,19.8,85,30.45,10.0,Calm,Calm,-,N/A,,Clear,0,2013-11-27 14:55:00
9:15 AM,25.2,18.5,76,30.46,10.0,Calm,Calm,-,N/A,,Clear,0,2013-11-27 15:15:00
9:35 AM,26.4,17.6,69,30.45,10.0,Calm,Calm,-,N/A,,Clear,0,2013-11-27 15:35:00
9:55 AM,27.5,17.6,66,30.45,10.0,Calm,Calm,-,N/A,,Clear,0,2013-11-27 15:55:00
10:15 AM,29.3,19.9,68,30.45,10.0,Calm,Calm,-,N/A,,Clear,0,2013-11-27 16:15:00
10:35 AM,30.2,18.3,61,30.44,10.0,ENE,3.5,-,N/A,,Clear,70,2013-11-27 16:35:00
10:55 AM,31.1,18.5,60,30.43,10.0,ENE,3.5,-,N/A,,Clear,70,2013-11-27 16:55:00
11:15 AM,32.2,17.8,55,30.43,10.0,East,3.5,-,N/A,,Clear,100,2013-11-27 17:15:00
11:35 AM,33.1,16.9,51,30.42,10.0,ESE,3.5,-,N/A,,Clear,110,2013-11-27 17:35:00
11:55 AM,33.3,16.9,51,30.41,10.0,Calm,Calm,-,N/A,,Clear,0,2013-11-27 17:55:00
12:15 PM,34.2,16.9,49,30.40,10.0,South,3.5,-,N/A,,Clear,170,2013-11-27 18:15:00
12:35 PM,34.9,18.1,51,30.38,10.0,South,4.6,-,N/A,,Clear,170,2013-11-27 18:35:00
12:55 PM,35.8,18.0,48,30.37,10.0,SW,3.5,-,N/A,,Clear,220,2013-11-27 18:55:00
1:15 PM,36.9,19.4,49,30.35,10.0,South,5.8,-,N/A,,Clear,170,2013-11-27 19:15:00
1:35 PM,38.1,20.5,49,30.34,10.0,SSE,5.8,-,N/A,,Clear,150,2013-11-27 19:35:00
1:55 PM,39.2,21.2,49,30.33,10.0,SSE,5.8,-,N/A,,Clear,150,2013-11-27 19:55:00
2:15 PM,40.6,21.6,47,30.32,10.0,ESE,5.8,-,N/A,,Clear,120,2013-11-27 20:15:00
2:35 PM,41.4,21.7,46,30.31,10.0,SSW,8.1,-,N/A,,Clear,200,2013-11-27 20:35:00
2:55 PM,41.2,21.2,45,30.30,10.0,South,8.1,-,N/A,,Clear,170,2013-11-27 20:55:00
3:15 PM,41.5,21.6,45,30.29,10.0,South,8.1,-,N/A,,Clear,170,2013-11-27 21:15:00
3:35 PM,41.9,21.7,45,30.29,10.0,South,10.4,-,N/A,,Clear,180,2013-11-27 21:35:00
3:55 PM,41.9,22.5,46,30.28,10.0,South,9.2,-,N/A,,Clear,180,2013-11-27 21:55:00
4:15 PM,41.2,23.7,50,30.28,10.0,South,9.2,-,N/A,,Clear,190,2013-11-27 22:15:00
4:35 PM,40.8,23.9,51,30.26,10.0,South,6.9,-,N/A,,Clear,190,2013-11-27 22:35:00
4:55 PM,39.7,24.4,54,30.26,10.0,South,8.1,-,N/A,,Clear,190,2013-11-27 22:55:00
5:15 PM,38.3,24.4,57,30.26,10.0,South,8.1,-,N/A,,Clear,190,2013-11-27 23:15:00
5:35 PM,36.7,24.8,62,30.27,10.0,South,6.9,-,N/A,,Clear,180,2013-11-27 23:35:00
5:55 PM,36.3,24.4,62,30.27,10.0,South,8.1,-,N/A,,Clear,190,2013-11-27 23:55:00
6:15 PM,35.6,24.4,64,30.26,10.0,South,8.1,-,N/A,,Clear,180,2013-11-28 00:15:00
6:35 PM,34.3,24.6,68,30.26,10.0,South,6.9,-,N/A,,Clear,180,2013-11-28 00:35:00
6:55 PM,33.1,24.6,71,30.26,10.0,South,8.1,-,N/A,,Clear,190,2013-11-28 00:55:00
7:15 PM,33.1,24.8,72,30.26,10.0,South,6.9,-,N/A,,Clear,180,2013-11-28 01:15:00
7:35 PM,32.9,25.2,73,30.25,10.0,South,8.1,-,N/A,,Clear,180,2013-11-28 01:35:00
7:55 PM,32.0,25.0,75,30.25,10.0,South,6.9,-,N/A,,Clear,180,2013-11-28 01:55:00
8:15 PM,32.0,25.3,76,30.25,10.0,South,5.8,-,N/A,,Clear,180,2013-11-28 02:15:00
8:35 PM,32.2,25.7,77,30.24,10.0,South,8.1,-,N/A,,Clear,180,2013-11-28 02:35:00
8:55 PM,32.0,25.9,78,30.24,10.0,South,6.9,-,N/A,,Clear,190,2013-11-28 02:55:00
9:15 PM,32.5,25.3,75,30.24,10.0,South,10.4,-,N/A,,Clear,190,2013-11-28 03:15:00
9:35 PM,32.4,24.8,74,30.24,10.0,South,9.2,-,N/A,,Clear,190,2013-11-28 03:35:00
9:55 PM,32.2,24.6,74,30.24,10.0,South,9.2,-,N/A,,Clear,180,2013-11-28 03:55:00
10:15 PM,32.0,24.6,74,30.24,10.0,South,8.1,-,N/A,,Clear,190,2013-11-28 04:15:00
10:35 PM,32.0,24.6,74,30.23,10.0,SSW,8.1,-,N/A,,Clear,200,2013-11-28 04:35:00
10:55 PM,32.0,24.8,75,30.23,10.0,SSW,11.5,-,N/A,,Clear,200,2013-11-28 04:55:00
11:15 PM,33.6,24.6,70,30.22,10.0,SSW,13.8,19.6,N/A,,Clear,200,2013-11-28 05:15:00
11:35 PM,33.6,24.4,69,30.22,10.0,SSW,12.7,-,N/A,,Clear,200,2013-11-28 05:35:00
11:55 PM,34.0,24.8,69,30.22,10.0,South,11.5,-,N/A,,Clear,190,2013-11-28 05:55:00